Kalkar, Germany

10:59 PM CEST on October 17, 2017 (GMT +0200)
Kalkar

Weather History for ETGY - May, 2012

Change the Weather History Date:

Friday, May 25, 2012

  Actual Average Record
Temperature  
Mean Temperature 67 °F -  
Max Temperature 77 °F - - ()
Min Temperature 57 °F - - ()
Cooling Degree Days 2    
Growing Degree Days 17 (Base 50)    
Moisture  
Dew Point 43 °F    
Average Humidity 42    
Maximum Humidity 59    
Minimum Humidity 24    
Precipitation  
Precipitation 0.00 in - - ()
Sea Level Pressure  
Sea Level Pressure 30.28 in    
Wind  
Wind Speed 5 mph ()    
Max Wind Speed 10 mph    
Max Gust Speed 22 mph    
Visibility 6.2 miles    
Events      
T = Trace of Precipitation, MM = Missing Value Source: Averaged Metar Reports

Daily Weather History Graph

Daily Weather History Graph

Search for Another Location

Airport or City:

Trip Planner

Search our weather history database for the weather conditions in past years. The results will help you decide how hot, cold, wet, or windy it might be!

Date:

Astronomy

May. 25, 2012 Rise Set
Actual Time 5:28 AM CEST 9:35 PM CEST
Civil Twilight 4:44 AM CEST 10:20 PM CEST
Nautical Twilight 3:40 AM CEST 11:24 PM CEST
Astronomical Twilight 2:04 AM CEST 12:59 AM CEST
Moon 9:20 AM CEST (5/25) 12:18 AM CEST (5/25)
Length of Visible Light 17h 36m
Length of Day
16h 07m
Waxing Crescent, 17% of the Moon is Illuminated
May 25
Waxing Crescent
May 28
First Quarter
Jun 4
Full
Jun 11
Last Quarter
Jun 19
New

Hourly Weather History & Observations

Time (CEST) Temp. Dew Point Humidity Pressure Visibility Wind Dir Wind Speed Gust Speed Precip Events Conditions
12:20 AM 66.2 °F 46.4 °F 49% 30.30 in 6.2 mi ENE 3.5 mph - N/A   Partly Cloudy
1:20 AM 64.4 °F 46.4 °F 52% 30.30 in 6.2 mi East 5.8 mph - N/A   Partly Cloudy
2:20 AM 64.4 °F 46.4 °F 52% 30.30 in 6.2 mi East 5.8 mph - N/A   Unknown
3:20 AM 62.6 °F 44.6 °F 52% 30.30 in 6.2 mi ENE 3.5 mph - N/A   Unknown
4:20 AM 60.8 °F 42.8 °F 52% 30.30 in 6.2 mi NE 4.6 mph - N/A   Unknown
5:20 AM 59.0 °F 42.8 °F 55% 30.30 in 6.2 mi ENE 4.6 mph - N/A   Partly Cloudy
6:20 AM 57.2 °F 42.8 °F 59% 30.33 in 6.2 mi ENE 4.6 mph - N/A   Partly Cloudy
7:20 AM 60.8 °F 42.8 °F 52% 30.33 in 6.2 mi ENE 5.8 mph - N/A   Partly Cloudy
8:20 AM 60.8 °F 44.6 °F 55% 30.33 in 6.2 mi ENE 6.9 mph - N/A   Partly Cloudy
9:20 AM 64.4 °F 42.8 °F 45% 30.33 in 6.2 mi East 8.1 mph - N/A   Scattered Clouds
10:20 AM 68.0 °F 42.8 °F 40% 30.33 in 6.2 mi East 6.9 mph - N/A   Scattered Clouds
11:20 AM 69.8 °F 39.2 °F 33% 30.33 in 6.2 mi East 8.1 mph - N/A   Scattered Clouds
12:20 PM 71.6 °F 39.2 °F 31% 30.30 in 6.2 mi East 8.1 mph 19.6 mph N/A   Partly Cloudy
1:20 PM 73.4 °F 37.4 °F 27% 30.30 in 6.2 mi East 10.4 mph - N/A   Partly Cloudy
2:20 PM 75.2 °F 39.2 °F 27% 30.30 in 6.2 mi East 10.4 mph - N/A   Partly Cloudy
3:20 PM 77.0 °F 41.0 °F 28% 30.27 in 6.2 mi ENE 9.2 mph - N/A   Unknown
4:20 PM 75.2 °F 37.4 °F 25% 30.24 in 6.2 mi ENE 10.4 mph - N/A   Unknown
5:20 PM 77.0 °F 37.4 °F 24% 30.24 in 6.2 mi ENE 9.2 mph 21.9 mph N/A   Partly Cloudy
6:20 PM 77.0 °F 39.2 °F 26% 30.21 in 6.2 mi East 9.2 mph - N/A   Partly Cloudy
7:20 PM 75.2 °F 42.8 °F 31% 30.21 in 6.2 mi ENE 5.8 mph - N/A   Partly Cloudy
8:20 PM 73.4 °F 46.4 °F 38% 30.21 in 6.2 mi ENE 4.6 mph - N/A   Partly Cloudy
9:20 PM 71.6 °F 48.2 °F 43% 30.21 in 6.2 mi NE 2.3 mph - N/A   Partly Cloudy
10:20 PM 68.0 °F 48.2 °F 49% 30.21 in 6.2 mi ENE 2.3 mph - N/A   Partly Cloudy
11:20 PM 64.4 °F 50.0 °F 59% 30.21 in 6.2 mi NE 2.3 mph - N/A   Partly Cloudy